Ana Sayfa
METAR-TAF:

METAR-TAF

Havaalanları :

Casino, Avustralya

Enlem: 28-52-39S, Boylam: 153-03-07E, yükseklik: 21 m

Güncel hava durumu gözlemi

Rapor saat 03:00 UTC de 1 saat ve 14 dakika önce yapıldı.
Rüzgar doğu/güneydoğudan 10 kt
Sıcaklık 29°C
Nem 62%
Basınç 1007 hPa

METAR: YCAS 270300Z AUTO 11010KT //// // ////// 29/21 Q1007

Saat: 15:14 (04:14 UTC)


TAF: eksik

4.000'den fazla havaalanı için hava durumu gözlemleri ve tahminleri (METAR ve TAF raporları).

Kullanılabilir istasyonlar harita üzerinde sarı ve kırmızı noktalarla gösterilir.

İstasyonun adını görmek için fareyi noktanın üzerinde gezdirin.

Sonrasında hava gözlem ve tahminlerini görmek için tıklayın.

Haritayı değiştirmek için: yaklaştırmak için siyah artı işaretli yeşil düğmeye ve uzaklaştırmak için de eksi işaretli düğmeye hızla tıklayın; bitişik haritalar için yeşil okları kullanın.


METAR-TAF: